Content
SEND FEEDBACK

Daily
Averages
Monthly
Summary
United States of America

NAPERVILLE, ILLINOIS


Home > North America > United States > Illinois
Elevation: 687 feet     Latitude: 41 49N     Longitude: 088 04W

WEATHER
 
SELECT A DAY
Number of Records: 199,855;   Date Range: 1/1/95 - 10/29/14
 
SHARE

PRINT THIS DATA

[ ← Previous Day ]
WEATHER ALMANAC - JUNE 9, 2014
[ Next Day → ]
[ °C ]   °F
Weather ElementAverageHighLow
Temperature63.2 °F75.9 °F (12:51 pm)55 °F (5:51 am)
Dewpoint47.1 °F55.9 °F (12:51 pm)39.9 °F (1:51 am)
Humidity55.8 %62 % (6:51 am)50 % (12:51 pm)
Barometer29.97 in30.02 in (1:51 am)29.92 in (6:51 pm)
Wind Speed8.5 mph13.8 mph (4:51 pm)
Weather ElementAverage
Visibility10 mi
Wind DirectionNNE (38.6 °)

Weather ElementTotal
Precipitation---
Cooling Degree Days0.5 (Base 65)
Growing Degree Days15.5 (Base 50)
Averaged from 21 records on June 9, 2014
WEATHER CONDITIONS BREAKOUT
WIND DIRECTION BREAKOUT
WEATHER BY HOUR - JUNE 9, 2014
[ °C ]   °F
Local TimeTemperatureDewpointHumidityBarometerVisibilityWind DirectionWind SpeedGust SpeedPrecipitationEventsConditions
1:51 AM57.0 °F39.9 °F53 %30.02 in10.0 miNNE (20°)8.1 mphOvercast
2:51 AM55.9 °F39.9 °F55 %30.01 in10.0 miNNE (20°)5.8 mphMostly Cloudy
3:51 AM55.9 °F39.9 °F55 %29.99 in10.0 miNNE (20°)6.9 mphScattered Clouds
4:51 AM55.9 °F39.9 °F55 %29.99 in10.0 miNE (40°)8.1 mphScattered Clouds
5:51 AM55.0 °F41.0 °F59 %29.99 in10.0 miNNE (30°)9.2 mphScattered Clouds
6:51 AM55.9 °F43.0 °F62 %30.02 in10.0 miNE (40°)8.1 mphPartly Cloudy
7:51 AM60.1 °F45.0 °F57 %30.01 in10.0 miNNE (20°)8.1 mphScattered Clouds
8:51 AM64.9 °F51.1 °F61 %29.99 in10.0 miENE (70°)8.1 mphPartly Cloudy
9:51 AM69.1 °F53.1 °F57 %29.98 in10.0 miEast (90°)6.9 mphClear
10:51 AM72.0 °F54.0 °F53 %29.98 in10.0 miVariable5.8 mphClear
11:51 AM73.0 °F55.0 °F53 %29.97 in10.0 miVariable3.5 mphClear
12:51 PM75.9 °F55.9 °F50 %29.97 in10.0 miEast (90°)6.9 mphPartly Cloudy
3:51 PM73.0 °F55.0 °F53 %29.93 in10.0 miNE (40°)11.5 mphScattered Clouds
4:51 PM71.1 °F54.0 °F55 %29.93 in10.0 miNE (50°)13.8 mphMostly Cloudy
5:51 PM70.0 °F53.1 °F55 %29.93 in10.0 miNE (40°)10.4 mphOvercast
6:51 PM68.0 °F52.0 °F56 %29.92 in10.0 miNE (50°)11.5 mphOvercast
7:51 PM64.9 °F50.0 °F58 %29.93 in10.0 miNE (50°)12.7 mphOvercast
8:51 PM57.9 °F42.1 °F56 %29.94 in10.0 miNE (50°)9.2 mphOvercast
9:51 PM57.0 °F41.0 °F55 %29.95 in10.0 miNE (40°)9.2 mphOvercast
10:51 PM57.0 °F42.1 °F57 %29.95 in10.0 miNNE (20°)8.1 mphOvercast
11:51 PM57.0 °F42.1 °F57 %29.94 in10.0 miNNE (30°)6.9 mphOvercast
Hourly data recorded from KORD, located miles away from Naperville, Illinois







STORIES FROM OUR PARTNERS